This demonstration page uses our WeatherBlox Daily Observations layout. Learn more.

Left ArrowRight Arrow

44.89941, -97.11507

Hourly Observations for September 26, 2018

Temp ( °F °C ) Dew Point ( °F °C ) Humidity (%) Winds ( mph kmh ) Pressure ( in mb ) Visibility ( mi km ) Precip ( " mm )
12:53 am 00:53 Clear 44 6.7 43 6.1 96 96 W 8 13 30.10 1019 10 16 0.00 0.00
1:53 am 01:53 Clear 43 6.1 42 5.6 97 97 W 9 15 30.10 1019 10 16 0.00 0.00
2:53 am 02:53 Clear 43 6.1 41 5 93 93 W 8 13 30.11 1020 10 16 0.00 0.00
3:53 am 03:53 Clear 43 6.1 41 5 93 93 W 9 15 30.12 1020 10 16 0.00 0.00
4:53 am 04:53 Clear 43 6.1 41 5 93 93 WNW 12 19 30.13 1020 10 16 0.00 0.00
5:53 am 05:53 Clear 42 5.6 40 4.4 92 92 W 9 15 30.14 1021 10 16 0.00 0.00
6:53 am 06:53 Clear 41 5 40 4.4 96 96 W 8 13 30.16 1021 10 16 0.00 0.00
7:53 am 07:53 Sunny 39 3.9 39 3.9 100 100 WSW 9 15 30.17 1022 10 16 0.00 0.00
8:53 am 08:53 Sunny 42 5.6 41 5 96 96 W 9 15 30.18 1022 10 16 0.00 0.00
9:53 am 09:53 Sunny 46 7.8 42 5.6 86 86 WSW 7 11 30.16 1021 10 16 0.00 0.00
10:53 am 10:53 Sunny 50 10 41 5 71 71 WNW 7 11 30.15 1021 10 16 0.00 0.00
11:53 am 11:53 Sunny 55 12.8 39 3.9 55 55 W 13 20 30.14 1021 10 16 0.00 0.00
12:53 pm 12:53 Sunny 58 14.4 40 4.4 51 51 SW 15 24 30.12 1020 10 16 0.00 0.00
1:53 pm 13:53 Sunny 60 15.6 40 4.4 47 47 SW 15 24 30.09 1019 10 16 0.00 0.00
2:53 pm 14:53 Sunny 62 16.7 39 3.9 43 43 WSW 23 37 30.04 1017 10 16 0.00 0.00
3:53 pm 15:53 Mostly Sunny 64 17.8 37 2.8 37 37 SW 23 37 30.01 1016 10 16 0.00 0.00
4:53 pm 16:53 Partly Cloudy 62 16.7 34 1.1 35 35 W 16 26 29.99 1016 10 16 0.00 0.00
5:53 pm 17:53 Sunny 64 17.8 37 2.8 37 37 SW 12 19 29.96 1015 10 16 0.00 0.00
6:53 pm 18:53 Sunny 57 13.9 40 4.4 53 53 SSW 8 13 29.95 1014 10 16 0.00 0.00
7:53 pm 19:53 Clear 55 12.8 41 5 59 59 S 8 13 29.94 1014 10 16 0.00 0.00
8:53 pm 20:53 Clear 54 12.2 42 5.6 64 64 S 12 19 29.92 1013 10 16 0.00 0.00
9:53 pm 21:53 Clear 54 12.2 43 6.1 67 67 SSW 14 22 29.91 1013 10 16 0.00 0.00
10:53 pm 22:53 Mostly Cloudy 53 11.7 44 6.7 72 72 S 13 20 29.89 1012 10 16 0.00 0.00
11:53 pm 23:53 Mostly Cloudy 54 12.2 42 5.6 64 64 SSW 12 19 29.88 1012 10 16 0.00 0.00

Powered by AerisWeather